Weather History for WAAA - September, 2013

Change the Weather History Date:

Wednesday, September 11, 2013

  Actual Average Record
Temperature  
Mean Temperature 82 °F -  
Max Temperature 92 °F - - ()
Min Temperature 72 °F - - ()
Cooling Degree Days 17    
Growing Degree Days 32 (Base 50)    
Moisture  
Dew Point 70 °F    
Average Humidity 66    
Maximum Humidity 89    
Minimum Humidity 37    
Precipitation  
Precipitation 0.00 in - - ()
Sea Level Pressure  
Sea Level Pressure 29.82 in    
Wind  
Wind Speed 5 mph ()    
Max Wind Speed 13 mph    
Max Gust Speed -    
Visibility 5.5 miles    
Events      
T = Trace of Precipitation, MM = Missing Value Source: Averaged Metar Reports

Daily Weather History Graph

Daily Weather History Graph

Search for Another Location

Airport or City:

Trip Planner

Search our weather history database for the weather conditions in past years. The results will help you decide how hot, cold, wet, or windy it might be!

Date:

Astronomy

Sep. 11, 2013 Rise Set
Actual Time 5:56 AM WITA 6:00 PM WITA
Civil Twilight 5:36 AM WITA 6:20 PM WITA
Nautical Twilight 5:11 AM WITA 6:45 PM WITA
Astronomical Twilight 4:47 AM WITA 7:09 PM WITA
Moon 10:17 AM WITA (9/11) 10:58 PM WITA (9/11)
Length of Visible Light 12h 44m
Length of Day
12h 03m
Waxing Crescent, 33% of the Moon is Illuminated
Sep 11
Waxing Crescent
Sep 13
First Quarter
Sep 19
Full
Sep 27
Last Quarter
Oct 5
New

Hourly Weather History & Observations

Time (WITA) Temp. Heat Index Dew Point Humidity Pressure Visibility Wind Dir Wind Speed Gust Speed Precip Events Conditions
12:00 AM 77.0 °F - 68.0 °F 74% 29.83 in 5.0 mi South 3.5 mph - N/A   Partly Cloudy
12:30 AM 77.0 °F - 68.0 °F 74% 29.83 in 5.0 mi SSE 4.6 mph - N/A   Partly Cloudy
1:00 AM 75.2 °F - 66.2 °F 73% 29.83 in 5.0 mi Variable 2.3 mph - N/A   Partly Cloudy
1:30 AM 75.2 °F - 68.0 °F 78% 29.83 in 5.0 mi East 3.5 mph - N/A   Partly Cloudy
2:00 AM 76 °F - 67 °F 67% 29.82 in 5 mi SSW 4.6 mph - -   Scattered Clouds
2:00 AM 75.2 °F - 66.2 °F 73% 29.80 in 5.0 mi SSW 4.6 mph - N/A   Partly Cloudy
2:30 AM 75.2 °F - 66.2 °F 73% 29.80 in 5.0 mi Variable 2.3 mph - N/A   Partly Cloudy
3:00 AM 75.2 °F - 66.2 °F 73% 29.80 in 5.0 mi ESE 5.8 mph - N/A   Partly Cloudy
3:30 AM 73.4 °F - 66.2 °F 78% 29.80 in 5.0 mi ESE 3.5 mph - N/A   Partly Cloudy
4:00 AM 73.4 °F - 66.2 °F 78% 29.80 in 5.0 mi Variable 2.3 mph - N/A   Partly Cloudy
4:30 AM 73.4 °F - 66.2 °F 78% 29.80 in 5.0 mi SSE 3.5 mph - N/A   Partly Cloudy
5:00 AM 73 °F - 66 °F 73% 29.83 in 5 mi SE 2.3 mph - -   Scattered Clouds
5:00 AM 73.4 °F - 66.2 °F 78% 29.83 in 5.0 mi Variable 2.3 mph - N/A   Partly Cloudy
5:30 AM 73.4 °F - 66.2 °F 78% 29.83 in 5.6 mi Variable 1.2 mph - N/A   Partly Cloudy
6:00 AM 71.6 °F - 66.2 °F 83% 29.83 in 5.6 mi South 5.8 mph - N/A   Partly Cloudy
6:30 AM 73.4 °F - 68.0 °F 83% 29.83 in 5.6 mi South 3.5 mph - N/A   Partly Cloudy
7:00 AM 75.2 °F - 69.8 °F 83% 29.86 in 5.6 mi Variable 2.3 mph - N/A   Partly Cloudy
7:30 AM 77.0 °F - 69.8 °F 78% 29.86 in 5.6 mi East 3.5 mph - N/A   Partly Cloudy
8:00 AM 79 °F - 70 °F 68% 29.88 in 6 mi SSE 1.2 mph - -   Scattered Clouds
8:00 AM 78.8 °F - 69.8 °F 74% 29.86 in 5.6 mi Variable 1.2 mph - N/A   Partly Cloudy
8:30 AM 86.0 °F 91.8 °F 71.6 °F 62% 29.89 in 5.6 mi South 3.5 mph - N/A   Partly Cloudy
9:00 AM 89.6 °F 94.7 °F 69.8 °F 52% 29.86 in 5.6 mi Variable 3.5 mph - N/A   Partly Cloudy
9:30 AM 89.6 °F 94.7 °F 69.8 °F 52% 29.86 in 6.2 mi East 3.5 mph - N/A   Partly Cloudy
10:00 AM 89.6 °F 96.2 °F 71.6 °F 55% 29.86 in 6.2 mi Variable 3.5 mph - N/A   Partly Cloudy
10:30 AM 91.4 °F 96.8 °F 69.8 °F 49% 29.86 in 6.2 mi Variable 3.5 mph - N/A   Partly Cloudy
11:00 AM 92 °F - 69 °F 37% 29.85 in 6 mi NNE 3.5 mph - -   Scattered Clouds
11:00 AM 93.2 °F 98.8 °F 69.8 °F 46% 29.83 in 6.2 mi Variable 3.5 mph - N/A   Partly Cloudy
11:30 AM 93.2 °F 98.8 °F 69.8 °F 46% 29.83 in 6.2 mi Variable 4.6 mph - N/A   Partly Cloudy
12:00 PM 95.0 °F 99.5 °F 68.0 °F 41% 29.80 in 6.2 mi Variable 3.5 mph - N/A   Partly Cloudy
12:30 PM 93.2 °F 102.4 °F 73.4 °F 52% 29.80 in 6.2 mi WNW 11.5 mph - N/A   Partly Cloudy
1:00 PM 93.2 °F 102.4 °F 73.4 °F 52% 29.77 in 6.2 mi WNW 11.5 mph - N/A   Partly Cloudy
1:30 PM 89.6 °F 98.2 °F 73.4 °F 59% 29.77 in 6.2 mi West 11.5 mph - N/A   Scattered Clouds
2:00 PM 90 °F - 73 °F 49% 29.78 in 6 mi WNW 11.5 mph - -   Scattered Clouds
2:00 PM 89.6 °F 98.2 °F 73.4 °F 59% 29.77 in 6.2 mi WNW 11.5 mph - N/A   Partly Cloudy
2:30 PM 89.6 °F 98.2 °F 73.4 °F 59% 29.77 in 6.2 mi West 12.7 mph - N/A   Partly Cloudy
3:00 PM 89.6 °F 98.2 °F 73.4 °F 59% 29.77 in 5.0 mi West 12.7 mph - N/A   Partly Cloudy
3:30 PM 89.6 °F 98.2 °F 73.4 °F 59% 29.77 in 6.2 mi West 12.7 mph - N/A   Partly Cloudy
4:00 PM 87.8 °F 95.6 °F 73.4 °F 62% 29.77 in 6.2 mi West 11.5 mph - N/A   Partly Cloudy
4:30 PM 87.8 °F 97.6 °F 75.2 °F 66% 29.77 in 6.2 mi WNW 9.2 mph - N/A   Partly Cloudy
5:00 PM 87 °F - 74 °F 57% 29.79 in 6 mi NW 10.4 mph - -   Scattered Clouds
5:00 PM 86.0 °F 93.4 °F 73.4 °F 66% 29.77 in 6.2 mi NW 10.4 mph - N/A   Partly Cloudy
5:30 PM 86.0 °F 96.9 °F 77.0 °F 74% 29.80 in 6.2 mi NW 9.2 mph - N/A   Partly Cloudy
6:00 PM 84.2 °F 94.1 °F 77.0 °F 79% 29.80 in 6.2 mi NNW 6.9 mph - N/A   Partly Cloudy
6:30 PM - - - N/A% 29.80 in 5.0 mi NW 5.8 mph - N/A   Partly Cloudy
7:00 PM 84.2 °F 92.3 °F 75.2 °F 74% 29.83 in 5.0 mi North 6.9 mph - N/A   Partly Cloudy
7:30 PM 82.4 °F 87.2 °F 71.6 °F 70% 29.83 in 5.0 mi NNW 6.9 mph - N/A   Partly Cloudy
8:00 PM 83 °F - 72 °F 61% 29.86 in 5 mi NNW 6.9 mph - -   Scattered Clouds
8:00 PM 82.4 °F 87.2 °F 71.6 °F 70% 29.83 in 5.0 mi NNW 6.9 mph - N/A   Partly Cloudy
8:30 PM 82.4 °F 87.2 °F 71.6 °F 70% 29.86 in 5.0 mi NNW 8.1 mph - N/A   Partly Cloudy
9:00 PM 82.4 °F 87.2 °F 71.6 °F 70% 29.86 in 5.0 mi NE 3.5 mph - N/A   Partly Cloudy
9:30 PM 80.6 °F 87.1 °F 77.0 °F 89% 29.89 in 5.0 mi North 4.6 mph - N/A   Partly Cloudy
10:00 PM 82.4 °F 86.3 °F 69.8 °F 66% 29.89 in 5.0 mi NNE 5.8 mph - N/A   Partly Cloudy
10:30 PM - - - N/A% - 5.0 mi SE 3.5 mph - N/A   Partly Cloudy
11:00 PM 79 °F - 68 °F 62% 29.88 in 5 mi East 2.3 mph - -   Scattered Clouds
11:00 PM 78.8 °F - 68.0 °F 69% 29.89 in 5.0 mi East 2.3 mph - N/A   Partly Cloudy
11:30 PM 77.0 °F - 68.0 °F 74% 29.86 in 5.0 mi Variable 1.2 mph - N/A   Partly Cloudy